Find Kosmos-1946

NORAD ID: 19163 Int'l Des: 1988-043 Owner: UNKS Country: SU Constellation: GLONASS operational
MEOCIRCULAR

現在のビュー

3D地球を読み込み中...

Kosmos-1946について

説明を読み込み中...

次回通過

Passes for default location (London). Set your location on the main map for personalized predictions.

高度履歴

Loading altitude history...

軌道要素

1 19163U 88043A 26145.50026725 -.00000043 00000-0 00000+0 0 9995
2 19163 64.9553 74.3851 0003996 78.1252 93.2087 2.13103040295115
Epoch: May 25, 2026 • Age: 110 hours

現在のステータス

高度 19130.6 km
速度 3.96 km/s
衛星直下点 64.80°N, 108.27°W
打ち上げ日 May 21, 1988
運用期間 38 years
タイプ other

技術仕様

分類 Payload
質量 1300.00 kg
乾燥質量 1200.00 kg
総質量 1300.00 kg
長さ 4.00 m
直径 1.50 m
スパン 7.80 m
形状 Cyl + Ant + 2 Pan
製造者 OAZ
バスタイプ Uragan
フェーズステータス In Orbit
所有者/国 UNKS/SU

Most Searched